This is the latest recevied weather packets stored in our database for station/object LX0WX-13. If no packets are shown the sender has not sent any weather packets the latest 10 day(s).
| Time | Temp. | Humidity | Pressure | Rain* | Wind** | Luminosity | Snow |
|---|---|---|---|---|---|---|---|
| 1777653965 | 18.33° C | 19% | 1018.6 hPa | 0 mm | - | - | - |
| 1777653665 | 18.33° C | 19% | 1018.6 hPa | 0 mm | - | - | - |
| 1777653365 | 18.89° C | 19% | 1018.7 hPa | 0 mm | - | - | - |
| 1777653065 | 18.89° C | 19% | 1018.8 hPa | 0 mm | - | - | - |
| 1777652765 | 18.89° C | 19% | 1018.8 hPa | 0 mm | - | - | - |
| 1777652465 | 19.44° C | 19% | 1018.9 hPa | 0 mm | - | - | - |
| 1777652165 | 19.44° C | 19% | 1018.7 hPa | 0 mm | - | - | - |
| 1777651865 | 19.44° C | 19% | 1018.7 hPa | 0 mm | - | - | - |
| 1777651565 | 19.44° C | 19% | 1018.7 hPa | 0 mm | - | - | - |
| 1777651265 | 19.44° C | 19% | 1018.8 hPa | 0 mm | - | - | - |
| 1777650965 | 20° C | 19% | 1018.9 hPa | 0 mm | - | - | - |
| 1777650665 | 20° C | 19% | 1019 hPa | 0 mm | - | - | - |
| 1777650365 | 20° C | 19% | 1019 hPa | 0 mm | - | - | - |
| 1777650065 | 20.56° C | 19% | 1019 hPa | 0 mm | - | - | - |
| 1777649765 | 20.56° C | 19% | 1019.1 hPa | 0 mm | - | - | - |
| 1777649465 | 20.56° C | 19% | 1019.2 hPa | 0 mm | - | - | - |
| 1777649165 | 20.56° C | 19% | 1019.3 hPa | 0 mm | - | - | - |
| 1777648865 | 20° C | 19% | 1019.1 hPa | 0 mm | - | - | - |
| 1777648265 | 20.56° C | 19% | 1019.2 hPa | 0 mm | - | - | - |
| 1777647965 | 21.11° C | 19% | 1019.4 hPa | 0 mm | - | - | - |
| 1777647665 | 21.67° C | 19% | 1019.3 hPa | 0 mm | - | - | - |
| 1777647365 | 22.22° C | 19% | 1019.4 hPa | 0 mm | - | - | - |
| 1777647065 | 22.22° C | 19% | 1019.3 hPa | 0 mm | - | - | - |
| 1777646765 | 22.78° C | 19% | 1019.4 hPa | 0 mm | - | - | - |
| 1777646465 | 23.33° C | 19% | 1019.5 hPa | 0 mm | - | - | - |
* Rain latest hour (hover to see other rain measurements)
** Current wind speed in m/s (hover to see current wind gust speed)